sat.trackr.live / text

‹ back to catalog

STARLINK-35949

NORAD 66630 · 2025-271P

PAYLOAD ACTIVE UNKNOWN

§ Identity

Operator
Country
US
Launch date
2025-11-23
Launch site
AFWTR
Launch vehicle
Mass (kg)
RCS (m²)

Purposes: comms

External: N2YO · Heavens-Above · Gunter

§ Orbital elements

Epoch: 2026-09-20T09:59:01.117824Z

Period
93.85 min
Inclination
53.1582°
Eccentricity
0.0001280
Mean motion
15.34395304 rev/d
Perigee alt
461.8 km
Apogee alt
463.6 km
Semi-major
6,840.9 km
B*
5.6528e-4
RAAN
310.2337°
Arg perigee
86.2079°
Mean anomaly
273.9070°
Rev number
4,745

§ Raw data

STARLINK-359491 66630U 25271P   26263.41598516  .00018768  00000+0  56528-3 0  99942 66630  53.1582 310.2337 0001280  86.2079 273.9070 15.34395304 47454

JSON: /api/v1/satellites/66630 · /tle

For live sub-satellite position, see the globe view (requires WebGL).

§ Visibility from observer

Set your observer location to see the next 7 days of passes ≥ 10°. The values pass through the URL so the page stays shareable.

No JS? Fill the form by hand. The geolocation button needs JavaScript.